When you browse on this site, cookies collect data to enhance your experience and personalize the content and advertising you see.
Visit our Privacy Policy to learn more. By continuing to use the site, you agree to this use of cookies and data.
  • In Slovakia
  • List of Countries
  • For 7 days
  • Water Temperature
  • Weather Map
  • Weather Widgets
  • user-avatar
    Login

    Hourly Weather Artashat

    Today, 19 September, Thursday

    Time Temperature Precipitation Wind Pressure Humidity
    00:00 +15°C° 0 mm 1 mps 605 mmHg 46%
    01:00 +14°C° 0 mm 1 mps 604 mmHg 46%
    02:00 +14°C° 0 mm 1 mps 604 mmHg 45%
    03:00 +13°C° 0 mm 1 mps 604 mmHg 45%
    04:00 +13°C° 0 mm 1 mps 603 mmHg 45%
    05:00 +11°C° 0 mm 0 mps 603 mmHg 45%
    06:00 +11°C° 0 mm 0 mps 603 mmHg 45%
    07:00 +13°C° 0 mm 0 mps 604 mmHg 39%
    08:00 +16°C° 0 mm 0 mps 605 mmHg 33%
    09:00 +20°C° 0 mm 1 mps 606 mmHg 27%
    10:00 +21°C° 0 mm 1 mps 606 mmHg 25%
    11:00 +22°C° 0 mm 1 mps 607 mmHg 23%
    12:00 +23°C° 0 mm 1 mps 607 mmHg 21%
    13:00 +24°C° 0 mm 2 mps 607 mmHg 20%
    14:00 +24°C° 0 mm 2 mps 607 mmHg 19%
    15:00 +25°C° 0 mm 2 mps 607 mmHg 18%
    16:00 +23°C° 0 mm 2 mps 606 mmHg 22%
    17:00 +21°C° 0 mm 2 mps 605 mmHg 25%
    18:00 +20°C° 0 mm 2 mps 605 mmHg 29%
    19:00 +20°C° 0 mm 1 mps 605 mmHg 30%
    20:00 +19°C° 0 mm 1 mps 605 mmHg 32%
    21:00 +18°C° 0 mm 1 mps 605 mmHg 34%
    22:00 +18°C° 0 mm 1 mps 605 mmHg 34%
    23:00 +16°C° 0 mm 1 mps 604 mmHg 35%

    Tomorrow, 20 September, Friday

    Time Temperature Precipitation Wind Pressure Humidity
    00:00 +14°C° 0 mm 0 mps 604 mmHg 36%
    01:00 +14°C° 0 mm 0 mps 604 mmHg 37%
    02:00 +13°C° 0 mm 0 mps 603 mmHg 37%
    03:00 +13°C° 0 mm 0 mps 603 mmHg 38%
    04:00 +12°C° 0 mm 0 mps 602 mmHg 39%
    05:00 +12°C° 0 mm 0 mps 602 mmHg 40%
    06:00 +11°C° 0 mm 0 mps 602 mmHg 40%
    07:00 +14°C° 0 mm 0 mps 603 mmHg 35%
    08:00 +16°C° 0 mm 0 mps 604 mmHg 29%
    09:00 +18°C° 0 mm 0 mps 605 mmHg 24%
    10:00 +22°C° 0 mm 1 mps 605 mmHg 21%
    11:00 +23°C° 0 mm 2 mps 605 mmHg 18%
    12:00 +25°C° 0 mm 2 mps 605 mmHg 15%
    13:00 +26°C° 0 mm 3 mps 605 mmHg 14%
    14:00 +26°C° 0 mm 4 mps 605 mmHg 14%
    15:00 +27°C° 0 mm 5 mps 604 mmHg 14%
    16:00 +26°C° 0 mm 5 mps 604 mmHg 16%
    17:00 +23°C° 0 mm 5 mps 603 mmHg 19%
    18:00 +22°C° 0 mm 6 mps 602 mmHg 22%
    19:00 +21°C° 0 mm 5 mps 602 mmHg 24%
    20:00 +20°C° 0 mm 4 mps 602 mmHg 26%
    21:00 +20°C° 0 mm 3 mps 602 mmHg 28%
    22:00 +19°C° 0 mm 3 mps 601 mmHg 29%
    23:00 +18°C° 0 mm 2 mps 601 mmHg 31%

    Day after tomorrow, 21 September, Saturday

    Time Temperature Precipitation Wind Pressure Humidity
    00:00 +17°C° 0 mm 2 mps 600 mmHg 33%
    01:00 +17°C° 0 mm 2 mps 600 mmHg 35%
    02:00 +16°C° 0 mm 2 mps 599 mmHg 36%
    03:00 +16°C° 0 mm 2 mps 599 mmHg 37%
    04:00 +15°C° 0 mm 2 mps 599 mmHg 38%
    05:00 +14°C° 0 mm 2 mps 598 mmHg 39%
    06:00 +14°C° 0 mm 2 mps 598 mmHg 40%
    07:00 +16°C° 0 mm 2 mps 599 mmHg 35%
    08:00 +17°C° 0 mm 2 mps 599 mmHg 31%
    09:00 +19°C° 0 mm 3 mps 600 mmHg 26%
    10:00 +20°C° 0 mm 4 mps 600 mmHg 23%
    11:00 +21°C° 0 mm 4 mps 600 mmHg 20%
    12:00 +22°C° 0 mm 5 mps 601 mmHg 17%
    13:00 +22°C° 0 mm 6 mps 601 mmHg 18%
    14:00 +22°C° 0 mm 7 mps 600 mmHg 19%
    15:00 +22°C° 0 mm 8 mps 600 mmHg 21%
    16:00 +18°C° 0 mm 7 mps 600 mmHg 26%
    17:00 +16°C° 0 mm 7 mps 599 mmHg 32%
    18:00 +12°C° 0 mm 7 mps 599 mmHg 37%
    19:00 +11°C° 0 mm 7 mps 599 mmHg 39%
    20:00 +10°C° 0 mm 6 mps 600 mmHg 40%
    21:00 +8°C° 0 mm 5 mps 600 mmHg 42%
    22:00 +7°C° 0 mm 4 mps 600 mmHg 44%
    23:00 +7°C° 0 mm 4 mps 600 mmHg 46%

    22 September, Sunday

    Time Temperature Precipitation Wind Pressure Humidity
    00:00 +6°C° 0 mm 4 mps 600 mmHg 48%
    01:00 +5°C° 0 mm 3 mps 600 mmHg 50%
    02:00 +5°C° 0 mm 3 mps 600 mmHg 51%
    03:00 +5°C° 0 mm 2 mps 600 mmHg 53%
    04:00 +5°C° 0 mm 2 mps 601 mmHg 53%
    05:00 +5°C° 0 mm 2 mps 601 mmHg 54%
    06:00 +5°C° 0 mm 1 mps 601 mmHg 55%
    07:00 +7°C° 0 mm 1 mps 602 mmHg 50%
    08:00 +7°C° 0 mm 2 mps 602 mmHg 45%
    09:00 +8°C° 0 mm 2 mps 603 mmHg 40%
    10:00 +10°C° 0 mm 2 mps 603 mmHg 37%
    11:00 +12°C° 0 mm 2 mps 603 mmHg 34%
    12:00 +12°C° 0 mm 3 mps 603 mmHg 31%
    13:00 +13°C° 0 mm 3 mps 603 mmHg 30%
    14:00 +14°C° 0 mm 3 mps 603 mmHg 29%
    15:00 +14°C° 0 mm 3 mps 602 mmHg 29%
    16:00 +13°C° 0 mm 3 mps 602 mmHg 32%
    17:00 +13°C° 0 mm 2 mps 602 mmHg 36%
    18:00 +13°C° 0 mm 1 mps 601 mmHg 39%
    19:00 +12°C° 0 mm 1 mps 601 mmHg 42%
    20:00 +10°C° 0 mm 0 mps 601 mmHg 44%
    21:00 +10°C° 0 mm 0 mps 601 mmHg 47%
    22:00 +9°C° 0 mm 0 mps 601 mmHg 48%
    23:00 +9°C° 0 mm 0 mps 601 mmHg 48%

    23 September, Monday

    Time Temperature Precipitation Wind Pressure Humidity
    00:00 +8°C° 0 mm 0 mps 601 mmHg 49%
    01:00 +8°C° 0 mm 0 mps 600 mmHg 50%
    02:00 +7°C° 0 mm 0 mps 600 mmHg 51%
    03:00 +7°C° 0 mm 0 mps 600 mmHg 52%
    04:00 +7°C° 0 mm 0 mps 600 mmHg 54%
    05:00 +6°C° 0 mm 0 mps 600 mmHg 55%
    06:00 +6°C° 0 mm 0 mps 600 mmHg 57%
    07:00 +9°C° 0 mm 1 mps 601 mmHg 51%
    08:00 +11°C° 0 mm 1 mps 602 mmHg 45%
    09:00 +13°C° 0 mm 1 mps 603 mmHg 39%
    10:00 +14°C° 0 mm 2 mps 604 mmHg 37%
    11:00 +15°C° 0 mm 2 mps 604 mmHg 34%
    12:00 +17°C° 0 mm 2 mps 604 mmHg 32%
    13:00 +17°C° 0 mm 2 mps 604 mmHg 31%
    14:00 +18°C° 0 mm 3 mps 604 mmHg 30%
    15:00 +18°C° 0 mm 3 mps 604 mmHg 29%
    16:00 +17°C° 0 mm 2 mps 603 mmHg 32%
    17:00 +16°C° 0 mm 2 mps 603 mmHg 35%
    18:00 +15°C° 0 mm 1 mps 603 mmHg 38%
    19:00 +14°C° 0 mm 1 mps 603 mmHg 40%
    20:00 +13°C° 0 mm 1 mps 603 mmHg 43%
    21:00 +11°C° 0 mm 0 mps 603 mmHg 45%
    22:00 +11°C° 0 mm 0 mps 603 mmHg 46%
    23:00 +12°C° 0 mm 1 mps 603 mmHg 47%

    24 September, Tuesday

    Time Temperature Precipitation Wind Pressure Humidity
    00:00 +11°C° 0 mm 1 mps 603 mmHg 48%
    01:00 +10°C° 0 mm 1 mps 603 mmHg 51%
    02:00 +10°C° 0 mm 1 mps 602 mmHg 54%
    03:00 +9°C° 0 mm 1 mps 602 mmHg 57%
    04:00 +9°C° 0 mm 1 mps 602 mmHg 60%
    05:00 +8°C° 0 mm 1 mps 602 mmHg 62%
    06:00 +8°C° 0 mm 1 mps 602 mmHg 64%
    07:00 +9°C° 0 mm 1 mps 603 mmHg 59%
    08:00 +11°C° 0 mm 1 mps 603 mmHg 54%
    09:00 +13°C° 0 mm 2 mps 604 mmHg 49%
    10:00 +14°C° 0 mm 2 mps 604 mmHg 46%
    11:00 +14°C° 0 mm 3 mps 604 mmHg 43%
    12:00 +17°C° 0 mm 3 mps 605 mmHg 39%
    13:00 +17°C° 0 mm 3 mps 604 mmHg 38%
    14:00 +18°C° 0 mm 3 mps 604 mmHg 36%
    15:00 +18°C° 0 mm 3 mps 604 mmHg 34%
    16:00 +17°C° 0 mm 2 mps 603 mmHg 38%
    17:00 +16°C° 0 mm 2 mps 603 mmHg 41%
    18:00 +15°C° 0 mm 1 mps 602 mmHg 45%
    19:00 +14°C° 0 mm 1 mps 602 mmHg 47%
    20:00 +14°C° 0 mm 1 mps 602 mmHg 48%
    21:00 +13°C° 0 mm 1 mps 602 mmHg 50%
    22:00 +13°C° 0 mm 1 mps 602 mmHg 50%
    23:00 +12°C° 0 mm 1 mps 601 mmHg 50%
    Show more